EHI
3 9 18 25 22 8 1 0 0 0 0 0 0 0 1 1 1 2 5 11 14 10 5 2 1 1 3 5 4 1 0 1 3 4 5 5 5 4 2 0 0 0 0 1 2 3 3 3 3
6 13 22 24 16 5 0 0 0 0 0 0 0 0 1 1 1 2 5 9 11 8 5 3 2 2 2 2 1 0 0 1 2 4 5 5 5 4 2 1 0 0 0 0 1 3 3 3 3
15 24 29 22 9 2 0 0 0 0 0 0 0 1 1 1 1 3 4 6 7 8 8 7 6 4 1 0 0 0 0 1 1 2 4 3 2 2 2 1 0 0 0 0 1 2 3 3 3
29 34 32 17 4 0 0 0 0 0 0 0 1 2 2 1 1 3 3 4 6 9 11 11 10 6 1 0 0 0 0 1 1 1 1 1 0 0 0 0 0 0 0 0 1 2 3 3 2
39 36 25 10 1 0 0 0 0 0 0 0 1 2 3 2 2 3 3 3 5 8 11 11 10 7 3 1 0 0 0 1 1 0 0 1 0 0 0 0 0 0 0 0 1 1 2 2 3
38 30 15 4 0 0 0 0 0 0 0 0 1 1 2 2 2 2 1 2 5 9 11 11 10 9 7 4 2 1 1 0 0 0 0 1 1 0 0 1 0 0 0 0 0 1 2 3 5
29 19 7 1 0 0 0 0 0 0 0 0 0 0 0 0 1 1 1 3 6 9 10 11 10 9 9 7 6 5 3 1 1 1 1 1 1 1 1 2 1 1 1 1 1 1 3 5 7
13 8 2 0 0 0 0 0 0 0 0 0 0 0 0 0 0 1 2 4 6 8 9 9 8 8 8 8 9 8 5 3 2 2 2 2 3 3 3 4 5 4 4 5 5 5 6 9 11
3 2 0 0 0 0 0 0 0 0 0 0 1 2 2 1 1 2 4 6 6 8 9 7 6 6 6 7 9 9 7 4 3 3 4 5 5 4 4 7 10 10 9 9 10 11 13 15 16
2 1 0 0 0 0 0 0 0 0 1 2 4 4 3 1 2 3 4 6 7 8 7 5 4 4 5 6 7 7 6 5 4 4 5 5 5 4 4 9 13 14 12 12 14 17 17 17 16
1 0 0 0 0 0 0 0 1 2 4 6 8 7 4 2 3 4 5 6 7 7 7 5 4 5 5 7 7 5 5 5 5 5 5 5 5 4 6 10 13 14 12 10 13 15 14 11 9
0 0 0 0 0 0 0 1 1 3 5 9 12 11 7 3 3 4 6 8 11 12 12 10 9 9 10 10 9 7 6 6 7 8 8 6 5 6 8 11 13 11 9 7 8 9 8 7 6
0 0 0 0 0 0 0 1 2 3 6 10 14 13 9 5 4 4 6 11 17 19 17 16 15 15 15 13 11 9 8 7 9 11 11 8 7 7 9 12 13 11 9 8 8 8 8 8 8
0 0 0 0 0 0 0 1 3 5 8 12 14 13 9 7 6 5 8 14 21 23 22 21 19 18 18 15 11 10 8 8 10 12 12 11 10 10 11 13 15 14 12 12 11 10 11 11 10
0 0 0 0 0 0 1 3 5 8 12 13 13 12 10 9 9 8 11 17 24 27 28 25 21 19 19 16 11 6 5 6 10 12 15 15 14 14 14 16 18 16 15 15 15 13 12 10 8
0 0 0 0 0 0 2 4 7 11 16 16 15 14 15 15 13 12 14 20 26 31 31 27 23 20 20 17 10 5 5 8 12 15 18 19 17 16 16 18 19 17 16 17 17 15 11 7 6
0 0 0 0 0 0 2 6 9 13 18 20 20 21 23 23 19 18 19 23 28 32 32 28 23 21 20 18 13 9 11 14 15 16 18 20 18 15 16 17 18 17 15 15 15 15 12 8 7
0 0 0 0 0 0 2 6 10 12 18 23 25 26 27 26 25 25 24 25 31 35 36 33 27 22 20 20 19 17 18 18 17 18 19 21 20 16 14 15 17 16 14 13 14 15 13 10 9
0 0 0 0 0 0 2 5 9 12 16 22 25 28 28 27 29 32 31 32 37 43 44 41 35 27 23 23 24 23 21 20 19 19 20 21 20 16 13 13 16 18 16 14 15 16 13 10 9
0 0 0 0 0 1 1 3 7 12 15 18 22 26 28 28 32 37 40 42 47 53 53 48 41 34 28 26 24 22 20 20 19 20 22 23 20 17 14 14 16 19 19 18 19 19 16 11 9
0 0 0 0 0 0 0 2 7 13 15 16 19 24 26 29 35 41 44 47 53 58 57 52 47 40 33 29 24 21 21 22 21 21 24 25 24 22 20 19 21 22 21 22 24 25 21 14 11
0 0 0 0 0 0 0 2 9 16 17 15 17 20 24 29 36 42 45 46 51 58 59 58 55 47 38 31 26 23 23 23 22 23 24 25 26 29 28 28 29 28 26 25 25 25 21 16 13
0 0 0 0 0 0 0 1 7 15 16 14 14 18 23 27 33 41 46 46 48 54 60 62 60 52 43 35 29 26 24 23 22 22 23 23 27 32 34 32 32 30 29 28 25 22 21 19 18
0 0 0 0 0 0 0 0 4 10 14 12 12 17 23 27 32 40 47 49 48 51 57 61 59 52 46 39 33 30 28 25 23 22 23 23 25 30 33 32 31 30 30 29 25 24 23 22 22
0 0 0 0 0 0 0 0 1 5 8 10 12 16 22 26 30 36 43 47 48 50 54 56 55 52 47 42 38 35 33 29 27 26 25 24 22 26 30 31 31 31 30 28 25 26 27 25 23
0 0 0 0 0 0 0 0 0 1 3 7 12 15 17 22 27 31 37 42 44 46 50 52 52 51 46 42 40 37 33 29 27 27 27 24 22 23 26 29 30 31 29 27 26 26 27 26 23
0 0 0 0 0 0 0 0 0 0 1 6 12 13 14 20 25 29 34 39 41 42 45 49 51 50 46 43 40 36 33 28 24 23 25 25 24 22 23 26 27 26 26 27 27 26 25 24 22
0 0 0 0 0 0 0 0 0 1 2 7 13 15 17 21 25 29 34 38 40 39 40 45 50 52 48 42 37 35 33 30 25 23 24 26 27 24 22 24 23 23 25 26 27 27 25 22 20
0 0 0 0 0 0 0 0 1 2 4 10 16 21 24 24 25 29 34 37 39 39 38 42 49 51 48 41 35 32 32 32 31 29 27 28 29 27 24 25 26 25 26 26 26 27 25 22 19
0 0 0 0 0 0 0 0 1 2 5 10 18 24 26 25 24 29 33 36 40 40 39 42 47 50 46 41 35 31 31 33 33 31 30 31 30 28 26 28 30 29 27 26 24 24 24 23 20
Wind_Speed
10 11 9 5 4 1 9 12 12 12 12 13 13 13 16 15 11 10 9 11 13 13 11 11 12 12 12 12 12 11 12 12 12 13 13 13 13 13 12 12 11 11 11 11 11 10 10 9 9
10 10 6 4 2 5 11 12 12 12 11 11 13 15 16 15 14 11 10 10 13 13 11 12 14 13 12 12 12 11 11 12 12 12 12 12 12 12 11 11 10 10 10 10 9 9 9 8 7
12 11 6 3 4 9 12 12 11 11 11 11 13 15 13 11 12 9 10 12 13 13 13 13 14 13 12 12 11 11 11 12 12 11 11 11 11 11 11 10 10 10 9 9 8 8 7 6 6
8 7 5 1 8 11 12 11 10 11 12 12 12 13 13 11 10 11 12 13 14 14 14 13 14 13 12 12 11 12 11 11 11 11 11 10 10 10 10 9 9 9 8 8 7 7 6 5 5
9 5 2 3 11 12 11 10 10 11 12 14 15 15 14 12 14 13 12 13 13 14 13 13 13 13 12 11 11 11 11 11 10 10 10 9 9 9 9 9 8 8 7 7 6 5 5 4 4
5 3 1 6 12 12 11 11 10 11 12 13 15 14 11 11 12 11 12 12 13 14 13 12 13 13 12 11 11 11 11 10 10 9 9 9 8 8 8 8 8 7 7 6 6 5 5 4 4
5 3 2 8 11 11 11 11 10 10 10 11 13 12 10 11 10 10 11 11 12 13 13 11 11 11 11 11 11 11 10 10 10 9 8 8 8 8 8 8 8 7 7 7 6 6 6 5 5
3 2 3 8 11 12 11 11 11 10 10 10 10 10 9 11 10 10 11 10 10 11 11 11 11 10 9 9 10 11 10 10 9 9 8 8 8 8 8 8 7 7 7 7 7 7 7 6 7
2 1 4 7 9 10 10 11 11 11 10 11 11 13 14 13 12 11 10 10 9 10 9 8 9 9 9 9 10 10 10 9 8 7 7 7 5 6 6 7 9 8 8 8 8 8 8 8 9
1 1 6 8 8 8 9 9 9 9 10 12 14 15 14 13 11 11 11 11 10 9 9 7 7 7 6 6 7 5 6 7 5 4 5 4 3 3 5 8 10 9 9 9 9 8 8 9 6
0 3 7 6 8 7 7 8 8 9 9 11 14 15 14 13 11 11 11 11 9 8 8 7 6 6 5 4 4 2 3 4 4 4 3 2 2 2 3 3 5 6 7 6 6 7 6 5 4
1 2 5 6 7 6 7 8 9 10 10 11 14 14 13 12 10 10 11 11 10 8 8 7 6 5 4 3 3 3 3 3 3 3 3 1 1 0 1 1 2 3 3 3 3 3 4 4 3
1 2 4 4 5 7 7 7 8 10 11 12 13 13 12 11 11 10 11 11 10 8 7 7 6 5 3 2 1 2 3 3 3 3 2 1 2 1 1 1 1 1 1 2 2 2 2 3 4
3 2 1 3 5 7 7 6 6 9 11 11 12 11 11 10 11 10 10 10 9 8 7 7 7 5 3 2 0 1 2 2 2 3 3 2 1 1 0 1 1 1 1 1 2 2 2 2 2
4 3 4 3 5 6 5 5 5 8 10 11 12 11 10 10 10 9 10 10 9 8 7 6 7 6 4 2 1 1 1 2 2 2 3 2 1 1 1 1 2 1 1 1 1 2 1 2 2
5 6 6 4 3 6 3 5 6 9 9 10 11 12 11 9 9 9 10 9 9 8 7 5 5 6 4 2 1 0 0 1 1 1 2 2 1 1 1 2 1 1 1 2 1 1 1 1 1
8 7 5 4 3 3 4 6 9 10 9 10 11 11 11 11 10 9 10 9 9 8 7 5 4 5 4 3 1 1 0 1 1 2 2 1 1 1 2 1 1 2 1 1 2 1 1 1 1
6 4 5 5 4 3 3 6 9 9 9 9 11 11 11 11 10 10 10 10 9 8 7 6 4 4 3 3 2 1 1 0 0 1 1 1 1 1 1 1 1 2 1 1 1 1 2 2 2
7 6 5 4 3 2 2 4 8 9 9 9 9 11 11 11 12 11 10 11 10 9 7 6 5 4 3 2 1 1 1 1 1 1 2 1 1 1 1 2 2 2 1 1 2 1 2 2 1
7 8 8 5 1 2 2 3 6 9 9 9 10 10 11 11 12 11 10 10 11 10 8 6 5 4 3 3 2 2 2 1 1 1 2 2 1 1 1 1 1 1 1 1 1 1 1 2 1
9 9 7 7 4 5 5 6 6 7 8 7 8 10 11 12 13 12 11 11 11 10 9 7 6 4 3 3 2 1 1 1 1 1 1 1 1 0 1 1 1 1 1 2 2 2 2 1 1
9 9 9 8 7 7 7 5 6 8 8 9 8 9 11 11 13 13 12 11 10 10 9 7 6 5 4 3 2 2 2 1 1 1 1 1 1 1 1 0 1 1 1 0 2 1 2 2 2
9 9 9 9 9 10 9 6 4 9 10 10 10 10 10 10 11 12 12 11 10 10 9 8 7 5 4 3 3 2 2 1 0 1 1 1 1 1 1 0 0 1 1 1 1 1 1 1 2
10 10 10 10 9 11 9 7 4 5 7 9 10 9 9 9 9 9 11 10 9 9 8 8 7 6 5 4 4 3 2 1 1 1 1 1 1 1 1 1 0 1 1 1 1 1 2 2 2
10 9 7 7 7 8 9 7 2 4 5 6 9 10 10 10 9 9 9 10 9 8 8 7 8 7 6 5 4 3 3 2 2 2 1 1 1 1 1 1 1 0 1 1 1 2 2 2 2
10 10 9 9 8 7 6 5 4 7 7 7 8 9 10 10 10 10 9 9 9 8 8 7 8 7 7 5 4 3 2 2 2 2 1 1 1 1 1 1 1 1 1 2 1 2 2 1 2
12 11 12 11 13 11 6 4 5 6 8 8 9 9 9 9 8 9 9 9 8 8 8 8 7 6 6 6 5 3 3 2 2 1 2 1 1 1 0 0 0 1 1 2 2 1 2 2 2
14 11 8 8 8 10 9 6 3 6 7 7 8 9 8 8 8 8 8 8 7 7 7 7 7 6 5 5 5 4 4 3 2 2 2 1 1 1 1 1 1 1 1 2 2 2 2 2 2
13 13 11 8 8 9 9 5 2 6 7 6 7 7 6 8 8 8 8 7 7 7 7 7 7 6 5 5 4 3 3 3 3 2 2 2 1 1 1 1 2 2 2 1 2 2 2 2 2
12 13 12 9 8 8 9 6 1 3 6 6 6 6 6 5 7 7 7 7 6 6 6 6 6 6 6 5 4 3 3 3 4 3 3 2 2 2 1 1 2 2 2 2 2 2 2 2 3
Wind_Direction
193 208 217 241 246 223 62 64 63 61 62 58 59 62 59 52 64 87 95 98 107 109 111 114 115 112 110 109 110 109 112 114 114 115 115 113 114 114 115 117 118 117 117 119 120 120 117 118 120
218 214 225 244 271 62 65 66 65 66 72 74 72 69 67 65 76 97 100 105 109 110 110 108 113 111 110 110 111 111 113 113 114 115 117 116 117 118 119 122 121 121 120 121 121 121 121 123 126
243 236 248 237 54 63 69 70 74 73 74 74 73 65 61 74 84 99 113 114 108 107 106 110 113 113 111 111 111 114 114 114 113 115 119 121 122 123 123 125 126 127 127 126 126 128 131 135 140
241 228 226 219 70 71 76 80 84 80 74 69 74 75 68 78 95 109 118 114 109 109 108 115 116 115 113 112 115 118 119 119 121 121 124 127 128 129 129 130 130 131 131 132 134 137 143 150 156
240 258 227 83 80 80 79 81 84 81 76 80 78 84 82 84 101 112 112 110 110 110 112 119 120 120 118 117 116 120 122 124 125 126 127 129 133 136 137 137 135 134 136 139 142 148 154 166 175
255 271 319 80 85 87 86 79 80 82 86 92 92 90 93 103 111 113 112 110 109 110 113 119 124 124 124 123 122 121 124 127 126 128 132 134 136 141 145 146 146 147 147 153 158 164 175 190 199
251 306 33 80 83 82 82 89 83 81 86 92 100 94 108 114 114 116 114 108 109 113 118 126 130 129 128 128 126 126 128 131 131 135 138 143 147 149 154 156 158 161 164 170 174 179 190 203 213
246 313 17 72 82 82 86 86 88 85 83 93 101 107 120 123 128 123 114 110 109 112 118 129 135 132 135 134 134 136 137 137 140 145 151 158 164 164 166 168 173 177 183 187 190 194 200 210 223
269 293 53 64 78 88 92 88 92 95 88 85 91 107 123 130 131 128 122 116 112 110 113 119 124 130 137 139 143 149 148 149 151 157 167 171 179 175 178 181 175 186 194 200 204 207 210 215 226
149 93 64 67 73 81 89 98 106 105 100 97 97 108 122 132 137 135 131 125 118 115 115 116 119 122 129 131 137 156 157 153 162 161 172 186 188 178 171 162 179 191 200 207 214 220 222 222 221
117 81 85 86 87 85 83 86 88 98 100 113 120 125 132 137 138 134 128 121 118 119 112 116 116 112 118 118 138 145 143 148 161 153 168 179 185 172 161 167 182 197 203 209 207 216 226 224 218
123 77 90 87 86 83 81 82 77 81 98 113 122 130 135 140 136 130 127 124 124 124 117 113 104 100 99 103 120 143 144 148 151 149 176 168 169 185 152 166 180 189 196 196 203 211 226 232 231
342 59 96 105 107 92 81 78 87 95 105 116 124 131 136 137 133 126 125 125 124 120 117 110 105 101 97 88 107 143 147 151 148 146 162 179 177 175 189 221 201 211 193 185 207 224 225 231 228
338 357 351 134 122 121 114 103 101 112 116 123 132 136 139 135 132 127 125 125 125 128 123 118 116 109 105 113 129 107 129 124 136 146 157 185 163 144 184 255 236 225 190 197 202 222 224 226 239
299 289 255 203 144 130 116 105 112 128 131 137 142 142 141 141 137 134 132 132 133 130 126 130 134 127 133 149 158 124 133 140 158 148 148 167 172 165 201 241 235 211 200 201 212 226 222 211 231
257 258 243 203 173 144 151 128 146 152 145 146 148 150 149 146 143 139 136 133 130 131 130 133 135 131 139 133 114 100 117 124 131 133 133 177 189 184 232 246 252 235 219 206 212 235 218 224 247
251 241 229 208 198 165 165 143 158 154 149 153 154 158 155 154 151 145 143 139 132 130 131 136 135 135 142 139 152 213 182 118 148 132 126 173 183 199 243 264 280 269 252 221 240 191 211 242 246
261 253 244 222 186 189 167 141 156 157 154 160 162 161 160 162 159 151 150 144 138 135 134 143 144 131 145 148 172 198 196 146 147 128 134 156 205 225 263 260 248 256 249 249 269 259 237 238 237
274 286 274 247 173 210 190 159 160 165 161 159 164 165 165 165 157 156 159 152 147 143 143 149 149 145 152 152 184 186 187 203 204 184 137 146 231 240 252 289 252 252 239 226 230 239 249 253 240
271 267 266 273 199 227 246 209 172 168 167 161 169 171 167 167 159 160 161 159 156 152 152 154 155 158 171 172 188 193 192 208 199 145 131 163 223 240 249 256 260 258 236 225 241 221 264 275 239
283 280 281 284 270 242 241 241 193 169 147 153 174 167 170 175 168 163 166 167 164 160 162 164 162 166 177 182 187 194 173 202 157 147 146 179 194 209 313 334 303 290 237 198 212 208 233 252 263
274 287 294 290 279 274 253 250 193 173 166 163 174 176 176 174 168 165 168 172 171 165 163 157 158 162 170 180 186 191 186 189 189 175 148 158 156 202 239 269 281 284 289 229 232 195 221 224 248
277 298 301 294 286 275 260 260 202 170 179 173 176 178 175 168 167 165 169 171 171 166 163 160 159 163 167 182 193 199 208 209 198 162 158 173 172 212 239 211 203 234 269 278 290 309 234 235 250
278 283 281 273 268 265 260 256 218 184 184 178 174 164 160 160 152 159 162 158 162 161 159 158 160 168 172 181 186 197 213 233 262 231 200 203 193 186 202 196 207 242 267 273 291 288 255 246 263
254 267 272 265 249 249 247 249 191 164 165 172 162 155 156 156 154 158 163 159 161 162 163 163 163 174 179 183 188 193 210 219 244 261 228 228 244 184 178 179 137 266 280 279 281 258 257 256 257
251 253 260 273 278 273 247 238 170 159 150 144 140 141 149 156 160 161 164 160 162 166 167 167 170 178 181 185 184 189 205 223 230 238 262 261 286 320 90 150 165 217 279 293 292 275 259 264 266
248 250 261 272 276 280 267 243 173 162 144 142 139 140 149 154 150 155 160 160 162 167 169 168 164 169 176 180 177 183 193 217 257 268 240 253 267 283 57 177 197 232 259 276 281 272 274 275 271
245 257 266 265 277 283 281 272 204 155 145 146 150 148 145 146 149 151 153 156 162 167 168 167 163 163 167 181 189 187 187 200 224 247 258 274 286 302 292 264 261 256 253 271 284 279 274 282 273
234 238 249 270 278 276 281 289 153 153 152 152 141 134 139 146 151 148 151 154 161 165 167 168 164 162 172 180 171 188 189 196 209 221 237 251 261 260 263 271 270 265 269 275 266 265 265 267 271
243 248 249 250 255 269 278 280 174 145 140 131 118 114 116 132 133 140 145 149 155 159 162 159 165 176 176 176 174 194 197 195 206 217 215 221 244 254 258 258 270 270 272 272 274 278 283 274 271